{"data":{"norad_id":52599,"intl_designator":"2022-052B","name":"STARLINK-4024","alt_names":[],"object_type":"PAYLOAD","status":"ACTIVE","operator":null,"country":"US","launch_date":"2022-05-14","launch_site_code":"AFETR","launch_vehicle":null,"mission":null,"orbit_class":"UNKNOWN","rcs_meters":null,"size_class":null,"mass_kg":null,"dimensions":null,"purposes":["comms"],"wikipedia_slug":null,"has_3d_model":false,"image_url":null,"decayed_at":null,"tle_current":{"epoch":"2026-09-19T21:49:42.159072Z","epoch_age_seconds":114330,"freshness":"FRESH","line1":"1 52599U 22052B   26262.90951573  .00000193  00000+0  17977-4 0  9995","line2":"2 52599  53.1588 112.0932 0001257  89.7614 270.3531 15.31695776241187","mean_motion":15.31695776,"eccentricity":0.0001257,"inclination_deg":53.1588,"raan_deg":112.0932,"arg_perigee_deg":89.7614,"mean_anomaly_deg":270.3531,"bstar":1.7977e-5,"rev_number":24118,"period_min":94.01344722387,"perigee_km":469.89168135773,"apogee_km":471.61349219984,"semimajor_km":6848.8895867788,"source":"CELESTRAK","updated_at":"2026-09-20T09:00:40.067544Z"}}}